Regional Weather Roundup
Issued by NWS

Home | Current Version | Previous Version | Text Only | Print | Product List | Glossary Off
Versions: 1 2 3 4 5 6 7 8 9 10 11 12 13 14 15 16 17 18 19 20 21 22 23 24 25 26 27 28 29 30 31 32 33 34 35 36 37 38 39 40 41 42 43 44 45 46 47 48 49 50

000
ASUS45 KTFX 030210
RWRMT
MONTANA REGIONAL WEATHER ROUNDUP
NATIONAL WEATHER SERVICE GREAT FALLS MT
800 PM MDT SUN AUG 02 2015

NOTE: "FAIR" INDICATES FEW OR NO CLOUDS BELOW 12000 FEET WITH NO
SIGNIFICANT WEATHER AND/OR OBSTRUCTIONS TO VISIBILITY.

MTZ001>007-043-030300-
WEST OF THE DIVIDE

CITY           SKY/WX    TMP DP  RH WIND       PRES   REMARKS
KALISPELL      CLEAR     88  31  13 S3        29.85F
MISSOULA       CLEAR     91  25   9 N8        29.87F
BUTTE          CLEAR     83  29  14 SE7       30.05S
MULLAN PASS    SUNNY     78  26  14 VRB6      30.11F
DEER LODGE       N/A     79  39  24 W6        30.02S
EUREKA           N/A     93  28  10 W6        29.83R
HAMILTON         N/A     86  52  30 CALM      29.89S
LIBBY            N/A     90  25   9 CALM      29.84S
PLAINS           N/A     95  36  12 W9        29.83S HX  90
RONAN            N/A     89  40  18 NE3       29.93F
$$

MTZ008-052>055-030300-
SOUTHWEST MONTANA

CITY           SKY/WX    TMP DP  RH WIND       PRES   REMARKS
BOZEMAN        PTCLDY    81  38  21 S5        29.99S
DILLON         CLEAR     80  46  30 NE7       30.00S
W YELLOWSTONE  PTCLDY    75  36  23 W3        30.13S
THREE FORKS      N/A     86  52  30 CALM      29.97S
TWIN BRIDGES     N/A     89  31  12 N7        29.99S
$$

MTZ009-010-012-014-046-048-049-054-030300-
EAST SLOPES AND CENTRAL MONTANA

CITY           SKY/WX    TMP DP  RH WIND       PRES   REMARKS
CUT BANK       CLEAR     82  43  25 E12       29.96F
GREAT FALLS    CLEAR     82  40  22 E10       29.95S
MALMSTROM AFB  CLEAR     81  45  27 E10       29.94F
HELENA         CLEAR     88  41  19 E8        29.92F
CONRAD           N/A     81  48  31 NE2       29.99S
$$

MTZ011-013-016-021-045-047-050-051-030300-
NORTH CENTRAL MONTANA

CITY           SKY/WX    TMP DP  RH WIND       PRES   REMARKS
HAVRE          CLEAR     78  52  40 E17       29.94F
LEWISTOWN      CLEAR     78  47  33 E9        30.03S
CHINOOK          N/A     77  54  44 E7        29.96S
FORT BENTON      N/A     82  46  28 E5        29.92F
$$

MTZ017>020-022>027-061-062-030300-
NORTHEAST MONTANA

CITY           SKY/WX    TMP DP  RH WIND       PRES   REMARKS
GLASGOW        CLEAR     78  47  33 N7        29.98R
JORDAN           N/A     81  48  31 E9        29.99R
SIDNEY         CLEAR    N/A N/A N/A N8        29.97R
WOLF POINT     CLEAR     79  46  31 NE9       29.98R
MALTA            N/A     81  53  37 CALM      29.95S
PLENTYWOOD       N/A     70  50  49 N6        30.00S
POPLAR           N/A     75  48  38 N5        29.99R
$$

MTZ028>42-056>058-030300-
SOUTHCENTRAL AND SOUTHEAST MONTANA

CITY           SKY/WX    TMP DP  RH WIND       PRES   REMARKS
BAKER          CLEAR     76  48  37 NE8       30.02R
BILLINGS       MOCLDY    82  42  24 NE10      29.99S
LIVINGSTON     CLEAR     84  39  20 E14       30.00R
MILES CITY     CLEAR     81  50  33 E10       29.97R
EKALAKA          N/A     76  45  33 NE9       30.01
FORSYTH          N/A     81  46  30 NE8       29.96S
LAUREL           N/A     83  42  23 N2        29.98S
ROUNDUP          N/A     83  41  22 NE6       29.92R
$$

REGIONAL REPORTS...DAKOTAS

CITY           SKY/WX    TMP DP  RH WIND       PRES   REMARKS
WILLISTON      CLEAR     75  46  35 N9        29.98R
MINOT          CLEAR     70  48  45 NW10      29.92S
DICKINSON      CLEAR     70  49  47 N6        29.98R
CROSBY         FAIR      64  50  59 NW7       29.98S
BISMARCK       CLEAR     74  51  44 N8        29.94S
GRAND FORKS    PTCLDY    66  50  56 NW7       29.82R
FARGO          CLEAR     68  52  56 W6        29.84S
BUFFALO SD       N/A     75  50  41 NE10      29.95R
RAPID CITY     CLEAR     74  56  53 NE10      29.99R
$$

REGIONAL REPORTS...WYOMING/IDAHO/WASHINGTON

CITY           SKY/WX    TMP DP  RH WIND       PRES   REMARKS
GILLETTE       CLEAR     80  47  31 NE9       30.02R
SHERIDAN       CLEAR     80  44  27 W10       30.00R
BUFFALO WY     CLEAR     80  42  25 NW9       30.09R
CODY           CLEAR     77  43  29 N10       30.07R
YELLOWSTONE LA   N/A     68  40  35 NW3       30.25S
IDAHO FALLS    MOCLDY    76  48  37 N3        29.95S
SALMON         PTCLDY    84  63  48 CALM      29.84R
BOISE          CLOUDY    96  45  17 W3        29.77S HX  92
SPOKANE        MOSUNNY   96  17   5 SW8       29.82F
$$

REGIONAL REPORTS...ALBERTA

CITY           SKY/WX    TMP DP  RH WIND       PRES   REMARKS
EDMONTON       SUNNY     75  54  46 SE7       29.93S
CALGARY        MOSUNNY   77  52  41 SE14G20   29.96S
LETHBRIDGE     MOCLDY    79  54  41 E10       29.92S
MEDICINE HAT   PTCLDY    81  50  34 E15G21    29.94S
WATERTON GATE    N/A     77  55  47 N3          N/A
MILK RIVER       N/A     77  52  41 E7          N/A
ONEFOUR          N/A     77  46  33 E14         N/A
$$

REGIONAL REPORTS...SASKATCHEWAN

CITY           SKY/WX    TMP DP  RH WIND       PRES   REMARKS
SWIFT CURRENT  PTCLDY    72  54  53 E3        30.01F
REGINA         PTCLDY    70  52  52 NW7       29.99S
SASKATOON      PTCLDY    72  54  53 NW3       29.98S
CYPRESS HILLS    N/A     68  50  52 E7          N/A
VAL MARIE        N/A     72  52  49 E10         N/A
ROCKGLEN         N/A     66  50  55 NW3         N/A
ASSINIBOIA       N/A     73  55  53 SE5         N/A
$$


USA.gov is the U.S. government's official web portal to all federal, state and local government web resources and services.